This is the latest recevied weather packets stored in our database for station/object ON7XX-13. If no packets are shown the sender has not sent any weather packets the latest 10 day(s).
| Time | Temp. | Humidity | Pressure | Rain* | Wind** | Luminosity | Snow |
|---|---|---|---|---|---|---|---|
| 1777829455 | 18.89° C | 90% | 1011.3 hPa | - | - | - | - |
| 1777828841 | 18.89° C | 91% | 1011.4 hPa | - | - | - | - |
| 1777828227 | 18.89° C | 91% | 1011.4 hPa | - | - | - | - |
| 1777827613 | 18.89° C | 92% | 1011.3 hPa | - | - | - | - |
| 1777826998 | 18.89° C | 92% | 1011.3 hPa | - | - | - | - |
| 1777826384 | 18.89° C | 93% | 1011.3 hPa | - | - | - | - |
| 1777825156 | 18.33° C | 96% | 1011.3 hPa | - | - | - | - |
| 1777824541 | 18.33° C | 97% | 1011.3 hPa | - | - | - | - |
| 1777823928 | 18.33° C | 98% | 1011.2 hPa | - | - | - | - |
| 1777823313 | 18.33° C | 97% | 1011.2 hPa | - | - | - | - |
| 1777822699 | 17.78° C | 97% | 1011.3 hPa | - | - | - | - |
| 1777822085 | 17.78° C | 95% | 1011.5 hPa | - | - | - | - |
| 1777821470 | 17.78° C | 95% | 1011.6 hPa | - | - | - | - |
| 1777820856 | 17.78° C | 94% | 1011.6 hPa | - | - | - | - |
| 1777820242 | 17.22° C | 95% | 1011.7 hPa | - | - | - | - |
| 1777819628 | 17.22° C | 97% | 1011.5 hPa | - | - | - | - |
| 1777819014 | 17.22° C | 95% | 1011.5 hPa | - | - | - | - |
| 1777818399 | 17.78° C | 92% | 1011.5 hPa | - | - | - | - |
| 1777817785 | 17.78° C | 91% | 1011.4 hPa | - | - | - | - |
| 1777817171 | 17.78° C | 93% | 1011.4 hPa | - | - | - | - |
| 1777816557 | 17.78° C | 93% | 1011.4 hPa | - | - | - | - |
| 1777815943 | 18.33° C | 91% | 1011.4 hPa | - | - | - | - |
| 1777815328 | 18.33° C | 89% | 1011.6 hPa | - | - | - | - |
| 1777814714 | 18.33° C | 88% | 1011.6 hPa | - | - | - | - |
| 1777814100 | 18.89° C | 86% | 1011.7 hPa | - | - | - | - |
* Rain since midnight (hover to see other rain measurements)
** Current wind speed in m/s (hover to see current wind gust speed)